Flag for United Kingdom Weather past 2 weeks in Oldham, England, United Kingdom

Now
55 °F

Sleet. Partly sunny.


Feels Like: 52 °F
Forecast: 51 / 58 °F
Wind: 13 mph from Southwest

Location: Manchester Airport

Current Time: Jul 7, 2015 at 8:55:15 PM

Latest Report: Jul 7, 2015 at 8:20 PM


Visibility: N/A

Pressure: 29.65 "Hg

Humidity: 88%

Dew point: 52 °F

Location of OldhamLocation

Historic Weather in Oldham — Graph

°F

Oldham temperature yesterday

Maximum temperature yesterday: 63 °F (at 9:50 AM)
Minimum temperature yesterday: 50 °F (at 3:50 AM)
Average temperature yesterday: 57 °F

Past Weeks' High & Low Weather Summary

 TemperatureHumidityPressure
High86 °F (Jul 1, 2:50 PM)100% (Jun 25, 3:50 AM)30.30 "Hg (Jun 25, 3:50 AM)
Low48 °F (Jun 23, 4:50 AM)39% (Jun 30, 8:20 PM)29.65 "Hg (Jul 7, 11:50 AM)
Average63 °F76%30.02 "Hg
* Reported Jun 22 7:20 PM — Jul 7 7:50 PM, Oldham, Weather by CustomWeather, © 2015

Note: Actual official high and low records may vary slightly from our data, if they occured in-between our weather recording intervals... More about our weather records

Advertising

Oldham weather history for previous 24 hours

 ConditionsComfort  
Time TempWeatherWind HumidityBarometerVisibility
7:50 PM
Tue, Jul 7
61 °FPartly sunny.14 mph68%29.65 "HgN/A
7:20 PM59 °FScattered clouds.16 mph72%29.65 "HgN/A
6:50 PM61 °FPassing clouds.16 mph68%29.65 "HgN/A
6:20 PM61 °FPassing clouds.21 mph68%29.65 "HgN/A
5:50 PM63 °FPassing clouds.20 mph64%29.65 "HgN/A
5:20 PM64 °FPassing clouds.18 mph60%29.65 "HgN/A
4:50 PM64 °FPassing clouds.18 mph60%29.65 "HgN/A
4:20 PM64 °FScattered clouds.18 mph60%29.65 "HgN/A
3:50 PM63 °FScattered clouds.10 mph73%29.68 "HgN/A
3:20 PM61 °FBroken clouds.12 mph77%29.68 "HgN/A
2:50 PM61 °FHeavy rain. Scattered clouds.10 mph72%29.68 "HgN/A
2:20 PM66 °FScattered showers. Scattered clouds.14 mph64%29.68 "HgN/A
1:50 PM66 °FScattered clouds.18 mph60%29.65 "HgN/A
1:20 PM64 °FScattered clouds.15 mph73%29.68 "HgN/A
12:50 PM63 °FScattered clouds.15 mph83%29.68 "HgN/A
12:20 PM59 °FBroken clouds.12 mph100%29.68 "HgN/A
11:50 AM63 °FScattered showers. Scattered clouds.14 mph88%29.65 "HgN/A
11:20 AM59 °FSprinkles. Scattered clouds.12 mph94%29.68 "HgN/A
10:50 AM63 °FScattered showers. Partly sunny.10 mph77%29.68 "HgN/A
10:20 AM63 °FScattered clouds.13 mph83%29.68 "HgN/A
9:50 AM64 °FPassing clouds.12 mph78%29.68 "HgN/A
9:20 AM63 °FScattered clouds.12 mph83%29.68 "HgN/A
8:50 AM61 °FPartly sunny.8 mph94%29.71 "HgN/A
8:20 AM59 °FPartly sunny.7 mph100%29.71 "HgN/A
7:50 AM59 °FDrizzle. Partly sunny.8 mph100%29.71 "Hg3 mi
7:20 AM59 °FDrizzle. Mostly cloudy.10 mph94%29.71 "Hg2 mi
6:50 AM61 °FDrizzle. Partly sunny.10 mph88%29.71 "HgN/A
6:20 AM59 °FScattered showers. Scattered clouds.13 mph94%29.71 "HgN/A
5:50 AM59 °FPassing clouds.10 mph94%29.71 "HgN/A
5:20 AM59 °FPassing clouds.9 mph94%29.74 "HgN/A
4:50 AM59 °FPassing clouds.10 mph88%29.74 "HgN/A
4:20 AM59 °FPassing clouds.10 mph88%29.74 "HgN/A
3:50 AM59 °FPassing clouds.13 mph88%29.77 "HgN/A
3:20 AM59 °FPartly cloudy.13 mph82%29.77 "HgN/A
2:50 AM59 °FPassing clouds.15 mph82%29.77 "HgN/A
2:20 AM59 °FPassing clouds.14 mph82%29.80 "HgN/A
1:50 AM59 °FPartly cloudy.14 mph82%29.80 "HgN/A
1:20 AM61 °FPartly cloudy.14 mph77%29.80 "HgN/A
12:50 AM61 °FPassing clouds.15 mph77%29.80 "HgN/A
12:20 AM61 °FPassing clouds.13 mph83%29.83 "HgN/A
11:50 PM
Mon, Jul 6
61 °FPassing clouds.17 mph83%29.83 "HgN/A
11:20 PM61 °FPassing clouds.14 mph83%29.83 "HgN/A
10:50 PM61 °FPassing clouds.12 mph83%29.83 "HgN/A
10:20 PM61 °FScattered clouds.10 mph83%29.86 "HgN/A
9:50 PM61 °FLight rain. Passing clouds.15 mph88%29.86 "HgN/A
9:20 PM63 °FPassing clouds.14 mph83%29.86 "HgN/A
8:50 PM61 °FPassing clouds.12 mph88%29.86 "HgN/A
8:20 PM61 °FScattered clouds.10 mph88%29.89 "HgN/A
Weather by CustomWeather, © 2015

See weather overviewHow to use our weather pages